Location: Skalnate Pleso
(49.1889°N, 20.2450°E)
Time: 16:57:14
(UTC+01:00)

Cosmos 1328 Rocket - Pass Details

Date: 19 November 2019
Orbit: 600 x 628 km, 82.5° (Epoch: 11 December)

Event Time Altitude Azimuth Distance (km) Brightness Sun altitude
Exits shadow 04:21:02 18° 3° (N) 1,499 5.5 -24.8°
Maximum altitude 04:24:06 55° 77° (ENE) 729 4.1 -24.3°
Drops below altitude 10° 04:28:19 10° 156° (SSE) 1,942 6.4 -23.6°
Sets 04:30:33 0° 160° (SSE) 2,838 7.3 -23.2°
